USA 270

Last updated on Tue Apr 02 2024 01:02:38 GMT+0100 (British Summer Time)

1 41744U 16052A 24090.96716365 -.00000334 00000+0 00000+0 0 9991 2 41744 2.1149 87.4714 0002649 219.7213 356.7010 1.00349673 10631
UTC large
Height (km)
Speed (km/s)
/
Latitude / Longitude
Inclination (degrees)
Orbital Period (minutes)
Azimuth
Elevation
Range (km)
Doppler Factor

Next 0 passes for location: London (51.5072 / 0.1276)

Sorry there are no passes over London.